Location: Unspecified
(0.0000°N, 0.0000°E)
Time: 20:31:24
(UTC+00:00)

Envisat - Visible Passes

Search period start: 18 December 2017 00:00
Search period end: 28 December 2017 00:00
Orbit: 764 x 766 km, 98.2° (Epoch: 18 December)

Date Brightness Start Highest point End Pass type
(mag) Time Alt. Az. Time Alt. Az. Time Alt. Az.
18 Dec 4.8 20:31:56 10° S 20:34:29 27° SSW 20:34:29 27° SSW visible
19 Dec 4.3 19:55:02 10° SSE 19:57:25 28° SSE 19:57:25 28° SSE visible
20 Dec 4.9 19:19:28 10° SE 19:20:21 14° ESE 19:20:21 14° ESE visible
20 Dec 5.5 20:58:33 10° SSW 21:00:34 17° SW 21:00:34 17° SW visible
21 Dec 4.4 20:20:38 10° S 20:23:30 33° SSW 20:23:30 33° SSW visible
22 Dec 4.3 19:44:05 10° SSE 19:46:27 26° SE 19:46:27 26° SE visible
23 Dec 5.0 19:09:06 10° ESE 19:09:23 11° ESE 19:09:23 11° ESE visible
23 Dec 5.1 20:46:53 10° SSW 20:49:35 23° SW 20:49:35 23° SW visible
24 Dec 4.0 20:09:25 10° S 20:12:31 38° S 20:12:31 38° S visible
25 Dec 4.4 19:33:16 10° SE 19:35:27 23° SE 19:35:27 23° SE visible
25 Dec 5.9 21:14:24 10° SW 21:15:40 12° WSW 21:15:40 12° WSW visible
26 Dec 4.6 20:35:23 10° SSW 20:38:36 30° SW 20:38:36 30° SW visible
27 Dec 3.8 19:58:20 10° SSE 20:01:31 39° SSE 20:01:31 39° SSE visible
